�������r�C�����j�^�v���󋵏��
Date,Time,5�C6���@���p�r�C��,����,����(m/s)
2024/03/19,00:00,3.6,�k��,8.0
2024/03/19,00:10,3.9,�k��,7.1
2024/03/19,00:20,3.9,�k�k��,4.9
2024/03/19,00:30,3.8,�k��,7.0
2024/03/19,00:40,3.7,�k��,6.2
2024/03/19,00:50,3.9,�k��,7.4
2024/03/19,01:00,3.6,�k��,6.0
2024/03/19,01:10,3.8,�k��,5.4
2024/03/19,01:20,3.7,�k��,5.7
2024/03/19,01:30,3.9,�k��,4.7
2024/03/19,01:40,3.7,���k��,5.5
2024/03/19,01:50,3.6,�k��,6.0
2024/03/19,02:00,3.8,�k��,6.8
2024/03/19,02:10,3.8,���k��,7.2
2024/03/19,02:20,3.6,���k��,5.1
2024/03/19,02:30,3.7,��,4.4
2024/03/19,02:40,3.8,��,3.8
2024/03/19,02:50,3.7,���k��,5.4
2024/03/19,03:00,3.8,���k��,4.9
2024/03/19,03:10,3.6,��,4.7
2024/03/19,03:20,3.8,��,5.0
2024/03/19,03:30,3.6,��,6.3
2024/03/19,03:40,3.7,��,5.1
2024/03/19,03:50,3.6,���k��,6.0
2024/03/19,04:00,3.6,��,6.1
2024/03/19,04:10,3.6,���k��,7.0
2024/03/19,04:20,3.9,���k��,6.3
2024/03/19,04:30,3.8,��,5.8
2024/03/19,04:40,3.7,���쐼,3.4
2024/03/19,04:50,3.6,���쐼,4.1
2024/03/19,05:00,3.7,���쐼,4.1
2024/03/19,05:10,3.7,���쐼,4.2
2024/03/19,05:20,3.8,���쐼,4.0
2024/03/19,05:30,3.6,��,5.9
2024/03/19,05:40,3.6,��,5.0
2024/03/19,05:50,3.7,��,4.9
2024/03/19,06:00,3.6,��,5.5
2024/03/19,06:10,3.7,��,4.1
2024/03/19,06:20,3.9,��,5.5
2024/03/19,06:30,3.7,��,5.6
2024/03/19,06:40,3.8,��,5.9
2024/03/19,06:50,3.8,���쐼,6.0
2024/03/19,07:00,3.6,��,6.1
2024/03/19,07:10,3.7,���쐼,5.2
2024/03/19,07:20,3.8,��,5.3
2024/03/19,07:30,3.8,��,4.8
2024/03/19,07:40,3.7,��,4.5
2024/03/19,07:50,3.8,��,4.4
2024/03/19,08:00,3.5,��,4.0
2024/03/19,08:10,3.8,���쐼,3.7
2024/03/19,08:20,3.7,���쐼,3.4
2024/03/19,08:30,3.8,���쐼,3.7
2024/03/19,08:40,3.7,���쐼,3.9
2024/03/19,08:50,3.7,���쐼,4.2
2024/03/19,09:00,3.7,���쐼,4.5
2024/03/19,09:10,3.9,���쐼,4.5
2024/03/19,09:20,3.7,��,5.0
2024/03/19,09:30,3.8,��,4.7
2024/03/19,09:40,3.9,��,4.5
2024/03/19,09:50,3.7,��,3.6
2024/03/19,10:00,3.7,��,4.4
2024/03/19,10:10,3.8,��,3.6
2024/03/19,10:20,3.7,���k��,4.4
2024/03/19,10:30,3.7,�k��,4.9
2024/03/19,10:40,3.6,�k��,7.2
2024/03/19,10:50,3.6,�k��,8.7
2024/03/19,11:00,3.7,�k��,7.3
2024/03/19,11:10,3.8,�k��,5.8
2024/03/19,11:20,3.6,�k��,8.3
2024/03/19,11:30,3.6,�k�k��,6.0
2024/03/19,11:40,3.6,�k�k��,8.6
2024/03/19,11:50,3.8,�k��,7.0
2024/03/19,12:00,3.8,�k��,8.4
2024/03/19,12:10,3.8,�k��,5.3
2024/03/19,12:20,3.7,�k��,5.0
2024/03/19,12:30,3.8,�k��,4.3
2024/03/19,12:40,3.5,���k��,3.5
2024/03/19,12:50,3.6,��,4.4
2024/03/19,13:00,3.7,���k��,3.2
2024/03/19,13:10,3.8,���쐼,5.4
2024/03/19,13:20,3.6,���k��,4.5
2024/03/19,13:30,3.8,��,4.0
2024/03/19,13:40,3.7,�k��,3.1
2024/03/19,13:50,3.8,���쐼,4.4
2024/03/19,14:00,3.6,�쐼,2.9
2024/03/19,14:10,3.6,���k��,2.0
2024/03/19,14:20,3.8,�k�k��,4.7
2024/03/19,14:30,3.6,���k��,2.5
2024/03/19,14:40,3.8,��,4.0
2024/03/19,14:50,3.7,��,4.3
2024/03/19,15:00,3.9,���쓌,3.0
2024/03/19,15:10,3.8,�쓌,4.5
2024/03/19,15:20,3.8,�쓌,3.3
2024/03/19,15:30,3.7,�쓌,4.9
2024/03/19,15:40,3.7,���쓌,4.0
2024/03/19,15:50,3.6,���쓌,4.2
2024/03/19,16:00,3.7,���쓌,4.0
2024/03/19,16:10,3.8,���쓌,3.6
2024/03/19,16:20,3.6,�쓌,4.2
2024/03/19,16:30,3.7,�쓌,4.6
2024/03/19,16:40,3.8,�쓌,4.3
2024/03/19,16:50,3.8,�쓌,4.1
2024/03/19,17:00,3.7,�쓌,3.7
2024/03/19,17:10,3.9,��쓌,4.8
2024/03/19,17:20,3.7,��쓌,5.4
2024/03/19,17:30,3.8,��,4.5
2024/03/19,17:40,3.6,��쓌,4.1
2024/03/19,17:50,3.5,��쓌,4.1
2024/03/19,18:00,3.7,��,3.4
2024/03/19,18:10,3.8,��,4.1
2024/03/19,18:20,3.9,��,4.4
2024/03/19,18:30,3.6,��쐼,4.0
2024/03/19,18:40,3.9,��,4.0
2024/03/19,18:50,3.6,��쐼,4.1
2024/03/19,19:00,3.7,��쐼,5.2
2024/03/19,19:10,3.8,��쐼,5.6
2024/03/19,19:20,3.8,��쐼,6.6
2024/03/19,19:30,3.9,��쐼,6.3
2024/03/19,19:40,3.9,��쐼,5.9
2024/03/19,19:50,3.8,�쐼,4.5
2024/03/19,20:00,3.6,��쐼,5.1
2024/03/19,20:10,3.7,��쐼,5.5
2024/03/19,20:20,3.7,��쐼,5.6
2024/03/19,20:30,3.7,�쐼,5.6
2024/03/19,20:40,3.7,�쐼,6.0
2024/03/19,20:50,3.7,�쐼,6.1
2024/03/19,21:00,3.7,�쐼,6.6
2024/03/19,21:10,3.8,���쐼,6.0
2024/03/19,21:20,3.6,���쐼,4.3
2024/03/19,21:30,3.6,��,6.2
2024/03/19,21:40,3.7,���쐼,5.7
2024/03/19,21:50,3.8,���쐼,5.2
2024/03/19,22:00,3.9,�쐼,5.3
2024/03/19,22:10,3.8,�쐼,5.2
2024/03/19,22:20,3.7,���쐼,4.4
2024/03/19,22:30,3.7,���쐼,4.0
2024/03/19,22:40,3.5,���쐼,4.4
2024/03/19,22:50,3.7,���쐼,4.9
2024/03/19,23:00,3.7,�쐼,4.5
2024/03/19,23:10,3.7,�쐼,4.2
2024/03/19,23:20,3.8,�쐼,4.1
2024/03/19,23:30,3.8,�쐼,3.8
2024/03/19,23:40,3.9,�쐼,3.1
2024/03/19,23:50,3.7,�쐼,4.2
